Bei Facebook empfehlenBei Twitter postenGoogle plusPinterest

Das Wetter im Erzgebirge am 11.01.2017

Wetter und Klima am 11.01.2017 Holzhau im Erzgebirge (630m ü.NN)
Letzte gemessene Temperatur und Uhrzeit der Messung23:45:00 Uhr-0.20 °C
Temperatur (Maximum / Höchstwert) und Uhrzeit der Messung23:45:00 Uhr-0.20 °C
Temperatur (Minimum / Tiefstwert) und Uhrzeit der Messung08:00:00-14.50 °C
Errechneter Absolutwert der Temperaturschwankungen zwischen Tmin und Tmax des Tages14.30 K
Errechnete Tagesmitteltemperatur-8.88542 °C
Gesamt - Niederschlag des Tages (in flüssiger Form)0.00 Liter / m²
Luftdruck (Maximum / Höchstwert) und Zeitpunkt der Messung02:00:00 Uhr1010.60 hPa
Luftdruck (Minimum / Tiefstwert) und Zeitpunkt der Messung21:45:00 Uhr998.20 hPa
Errechneter Absolutwert der Luftdruckschwankungen des Tages12.40 hPa
Höchste gemessene Windgeschwindigkeit und Uhrzeit der Messung10:45:00 Uhr13.68 km/h
Errechnete Windhäufigkeit in Relation zu den Messwerten des Tages46.87500 %
Niedrigste Windkühle (Windchill) und Zeitpunkt der Messung00:30:00 Uhr-18.20 °C
Taupunkt (Maximum / Höchstwert) und Uhrzeit der Messung23:45:00 Uhr-1.10 °C
Taupunkt (Minimum / Tiefstwert) und Uhrzeit der Messung08:00:00-16.60 °C
Anzahl der automatisch eingelesenen Messwerte 96

Detaillierte Wetter- und Klima- Messwerte für den 11.01.2017 in Holzhau im Erzgebirge (630m ü.NN)
ZeitTemperaturLuftdruckRel. LuftfeuchteWindWindrichtungWindchillTaupunktNiederschlag l/m²
23:45:00-0.20 °C999.60 hPa94.00 %-1.10 °C 
23:30:00-0.20 °C999.60 hPa94.00 %-1.10 °C 
23:15:00-0.20 °C999.50 hPa94.00 %-1.10 °C 
23:00:00-0.40 °C999.40 hPa94.00 %-1.30 °C 
22:45:00-0.30 °C999.20 hPa94.00 %-1.20 °C 
22:30:00-0.30 °C999.00 hPa94.00 %-1.20 °C 
22:15:00-0.40 °C998.90 hPa94.00 %-1.30 °C 
22:00:00-0.40 °C998.60 hPa94.00 %-1.30 °C 
21:45:00-0.70 °C998.20 hPa93.00 %-1.80 °C 
21:30:00-1.10 °C998.20 hPa93.00 %-2.20 °C 
21:15:00-1.70 °C998.50 hPa93.00 %-2.80 °C 
21:00:00-2.40 °C998.40 hPa93.00 %-3.50 °C 
20:45:00-3.10 °C998.30 hPa92.00 %-4.30 °C 
20:30:00-3.50 °C998.60 hPa92.00 %-4.70 °C 
20:15:00-3.90 °C998.40 hPa92.00 %-5.10 °C 
20:00:00-4.70 °C998.40 hPa90.00 %-6.30 °C 
19:45:00-4.90 °C998.20 hPa90.00 %3.60 km/hS-4.90 °C-6.50 °C 
19:30:00-5.10 °C998.30 hPa90.00 %-6.60 °C 
19:15:00-5.10 °C998.20 hPa90.00 %-6.60 °C 
19:00:00-5.10 °C998.40 hPa89.00 %8.64 km/hS-9.00 °C-6.80 °C 
18:45:00-5.20 °C998.40 hPa89.00 %-6.90 °C 
18:30:00-5.20 °C998.60 hPa89.00 %-6.90 °C 
18:15:00-5.60 °C998.80 hPa88.00 %1.08 km/hSW-5.60 °C-7.50 °C 
18:00:00-5.90 °C998.90 hPa89.00 %4.32 km/hN-5.90 °C-7.60 °C 
17:45:00-6.20 °C999.00 hPa89.00 %1.44 km/hSSW-6.20 °C-7.90 °C 
17:30:00-6.80 °C999.10 hPa89.00 %-8.50 °C 
17:15:00-7.30 °C999.40 hPa88.00 %-9.10 °C 
17:00:00-7.90 °C999.70 hPa87.00 %-9.90 °C 
16:45:00-8.10 °C999.90 hPa86.00 %-10.30 °C 
16:30:00-7.90 °C1000.40 hPa87.00 %-9.90 °C 
16:15:00-7.90 °C1000.50 hPa86.00 %3.60 km/hSW-7.90 °C-10.10 °C 
16:00:00-7.70 °C1000.90 hPa86.00 %4.32 km/hSSW-7.70 °C-9.90 °C 
15:45:00-7.60 °C1001.60 hPa86.00 %-9.80 °C 
15:30:00-7.50 °C1001.80 hPa86.00 %8.64 km/hSSO-11.80 °C-9.70 °C 
15:15:00-7.40 °C1002.00 hPa86.00 %1.08 km/hNNW-7.40 °C-9.60 °C 
15:00:00-7.40 °C1002.60 hPa85.00 %-9.70 °C 
14:45:00-7.20 °C1002.80 hPa85.00 %7.56 km/hNW-11.00 °C-9.50 °C 
14:30:00-7.20 °C1003.10 hPa85.00 %4.68 km/hS-7.20 °C-9.50 °C 
14:15:00-6.90 °C1003.40 hPa84.00 %0.72 km/hWNW-6.90 °C-9.40 °C 
14:00:00-6.90 °C1003.90 hPa85.00 %7.56 km/hWNW-10.70 °C-9.20 °C 
13:45:00-6.90 °C1004.10 hPa84.00 %4.68 km/hSSO-6.90 °C-9.40 °C 
13:30:00-6.70 °C1004.70 hPa84.00 %2.52 km/hWSW-6.70 °C-9.20 °C 
13:15:00-6.70 °C1004.90 hPa84.00 %3.24 km/hSSW-6.70 °C-9.20 °C 
13:00:00-6.90 °C1005.40 hPa85.00 %2.88 km/hNNW-6.90 °C-9.20 °C 
12:45:00-7.60 °C1005.80 hPa84.00 %10.08 km/hSSW-12.40 °C-10.10 °C 
12:30:00-7.90 °C1006.30 hPa84.00 %11.16 km/hW-13.10 °C-10.40 °C 
12:15:00-7.90 °C1006.30 hPa83.00 %9.72 km/hSSW-12.70 °C-10.60 °C 
12:00:00-7.90 °C1006.80 hPa84.00 %-10.40 °C 
11:45:00-8.20 °C1007.00 hPa85.00 %4.32 km/hW-8.20 °C-10.50 °C 
11:30:00-8.70 °C1007.30 hPa86.00 %-10.90 °C 
11:15:00-9.20 °C1007.70 hPa86.00 %2.52 km/hWNW-9.20 °C-11.30 °C 
11:00:00-9.60 °C1007.90 hPa86.00 %7.20 km/hW-13.70 °C-11.70 °C 
10:45:00-9.70 °C1008.60 hPa87.00 %13.68 km/hSW-16.00 °C-11.70 °C 
10:30:00-10.40 °C1008.60 hPa88.00 %11.16 km/hW-16.10 °C-12.20 °C 
10:15:00-11.20 °C1008.80 hPa87.00 %11.16 km/hSSW-17.10 °C-13.10 °C 
10:00:00-11.90 °C1009.50 hPa87.00 %9.36 km/hSW-17.30 °C-13.80 °C 
09:45:00-11.90 °C1009.50 hPa87.00 %11.52 km/hNW-18.10 °C-13.80 °C 
09:30:00-12.10 °C1009.80 hPa88.00 %-13.90 °C 
09:15:00-12.20 °C1008.90 hPa88.00 %6.84 km/hSW-16.50 °C-14.00 °C 
09:00:00-12.70 °C1008.90 hPa88.00 %-14.50 °C 
08:45:00-13.50 °C1009.30 hPa87.00 %-15.40 °C 
08:30:00-14.20 °C1009.20 hPa87.00 %1.44 km/hS-14.20 °C-16.10 °C 
08:15:00-14.40 °C1009.30 hPa86.00 %-16.50 °C 
08:00:00-14.50 °C1009.20 hPa86.00 %-16.60 °C 
07:45:00-14.30 °C1009.30 hPa86.00 %4.32 km/hSSW-14.30 °C-16.40 °C 
07:30:00-14.20 °C1009.20 hPa86.00 %5.04 km/hSSW-17.70 °C-16.30 °C 
07:15:00-14.10 °C1009.20 hPa86.00 %2.52 km/hNNW-14.10 °C-16.20 °C 
07:00:00-14.10 °C1009.10 hPa86.00 %-16.20 °C 
06:45:00-14.10 °C1009.30 hPa86.00 %2.16 km/hNNW-14.10 °C-16.20 °C 
06:30:00-13.90 °C1009.50 hPa86.00 %3.96 km/hNW-13.90 °C-16.00 °C 
06:15:00-13.60 °C1009.60 hPa86.00 %-15.70 °C 
06:00:00-13.60 °C1009.60 hPa86.00 %-15.70 °C 
05:45:00-13.60 °C1009.60 hPa86.00 %3.24 km/hSSO-13.60 °C-15.70 °C 
05:30:00-13.60 °C1009.60 hPa86.00 %3.60 km/hS-13.60 °C-15.70 °C 
05:15:00-13.60 °C1009.60 hPa86.00 %-15.70 °C 
05:00:00-13.60 °C1009.80 hPa86.00 %-15.70 °C 
04:45:00-13.50 °C1009.70 hPa86.00 %-15.60 °C 
04:30:00-13.60 °C1009.70 hPa86.00 %-15.70 °C 
04:15:00-13.40 °C1009.90 hPa86.00 %-15.50 °C 
04:00:00-13.30 °C1009.90 hPa86.00 %4.32 km/hSSO-13.30 °C-15.40 °C 
03:45:00-13.30 °C1009.80 hPa86.00 %2.16 km/hS-13.30 °C-15.40 °C 
03:30:00-13.40 °C1009.80 hPa86.00 %-15.50 °C 
03:15:00-13.10 °C1010.20 hPa86.00 %-15.20 °C 
03:00:00-13.10 °C1010.30 hPa86.00 %-15.20 °C 
02:45:00-13.00 °C1010.10 hPa86.00 %-15.10 °C 
02:30:00-12.90 °C1010.20 hPa86.00 %1.08 km/hSO-12.90 °C-15.00 °C 
02:15:00-13.00 °C1010.40 hPa86.00 %4.68 km/hNO-13.00 °C-15.10 °C 
02:00:00-12.90 °C1010.60 hPa86.00 %-15.00 °C 
01:45:00-12.80 °C1010.40 hPa86.00 %-14.90 °C 
01:30:00-12.80 °C1010.20 hPa86.00 %4.68 km/hONO-12.80 °C-14.90 °C 
01:15:00-12.80 °C1010.50 hPa86.00 %-14.90 °C 
01:00:00-12.70 °C1010.30 hPa86.00 %2.88 km/hOSO-12.70 °C-14.80 °C 
00:45:00-12.70 °C1010.20 hPa86.00 %-14.80 °C 
00:30:00-12.70 °C1010.10 hPa86.00 %9.36 km/hSSW-18.20 °C-14.80 °C 
00:15:00-12.70 °C1010.20 hPa86.00 %-14.80 °C 
00:00:00-12.60 °C1010.10 hPa86.00 %6.12 km/hS-16.60 °C-14.70 °C 

Permanenter Link zu dieser Seite: Wetter im Erzgebirge am 11.01.2017
Performance-Info: Die Erstellung der Seite / Statistik(en) / Tabelle(n) erforderte 5 Datenbankserver-Abfrage(n) und dauerte 100 Millisekunden. (Dieser Messwert ist von der Gesamt-Auslastung des Servers abhängig.)
Erzgebirge - Wetter | Erzgebirge - Wetter (Mobilgeräte) | Komplette Klimadatenbank